Regional Weather Roundup
Issued by NWS Kansas City/Pleasant Hill, MO

Home | Current Version | Previous Version | Text Only | Print | Product List | Glossary On
Versions: 1 2 3 4 5 6 7 8 9 10 11 12 13 14 15 16 17 18 19 20 21 22 23 24 25 26 27 28 29 30 31 32 33 34 35 36 37 38 39 40 41 42 43 44 45 46 47 48 49 50
869
ASUS43 KEAX 091610
RWREAX

WEATHER ROUNDUP FOR EASTERN KANSAS AND NORTHWEST MISSOURI
NATIONAL WEATHER SERVICE KANSAS CITY/PLEASANT HILL MO
1000 AM CST TUE FEB 09 2016

KSZ040-057-103>105-MOZ028-029-037-043-091700-
...KANSAS CITY METROPOLITAN AREA...

CITY           SKY/WX    TMP DP  RH WIND       PRES   REMARKS
K.C. INTL      MOSUNNY   20   8  60 N18G28    30.17R WCI   5
K.C. DOWNTOWN  SUNNY     22   8  55 NW14G23   30.19R WCI   9
LEES SUMMIT    SUNNY     20   7  57 NW15G25   30.16R WCI   6
OLATHE - IXD   SUNNY     22   9  57 NW23G35   30.19R WCI   6
OLATHE - OJC   MOSUNNY   21   8  57 N17G29    30.17R WCI   7
LAWRENCE       SUNNY     25  10  53 N14G23    30.22R WCI  13

$$

MOZ001>008-011>017-020>025-030>033-038>040-044>046-053-054-091700-
...NORTHERN AND CENTRAL MISSOURI...

CITY           SKY/WX    TMP DP  RH WIND       PRES   REMARKS
ST. JOSEPH     MOSUNNY   20   7  57 N20G30    30.21R WCI   4
MOSBY          MOSUNNY   19   9  63 NW15G26   30.18R WCI   5
WARRENSBURG    SUNNY     21  10  63 NW14G23   30.16R WCI   8
WHITEMAN AFB   PTSUNNY   20   7  58 N15       30.13R WCI   6
CLINTON          N/A     25  12  58 NW16G24   30.16R WCI  12
SEDALIA        CLOUDY    20   8  60 NW22G30   30.14R WCI   3
WARSAW         NOT AVBL
CHILLICOTHE      N/A     18   7  62 NW9G23    30.15R WCI   7
KIRKSVILLE     FLURRIES  17   5  59 NW16G25   30.06R WCI   2

$$

MOZ041-047>049-056>058-063>065-088>090-097-091700-
...EASTERN AND SOUTHERN MISSOURI...

CITY           SKY/WX    TMP DP  RH WIND       PRES   REMARKS
ST. LOUIS INTL LGT SNOW  19  12  73 NW15G23   30.00R WCI   5
SPIRIT OF STL  CLOUDY    20   9  62 NW18G25   30.02R WCI   5
COLUMBIA       CLOUDY    19   7  59 NW18      30.07R WCI   4
JEFFERSON CITY CLOUDY    20   8  60 NW21G28   30.09R WCI   4
ROLLA          FLURRIES  19  10  68 NW17      30.01R WCI   4
OSAGE BEACH    CLOUDY    21   7  53 NW12G22   30.09R WCI   9
SPRINGFIELD    MOSUNNY   28   9  44 NW28G35   30.07R WCI  13
BRANSON        MOSUNNY   32   3  29 NW17G28   30.06R WCI  21
JOPLIN         SUNNY     32  10  40 N21G28    30.18R WCI  20
WEST PLAINS    CLOUDY    24   9  52 NW20G26   30.01R WCI  10

$$

IAZ060-094-KSZ022-034>040-054-083-096-NEZ052-066-093-091700-
...KANSAS...SOUTHEAST NEBRASKA AND IOWA...

CITY           SKY/WX    TMP DP  RH WIND       PRES   REMARKS
TOPEKA         SUNNY     27   5  39 NW22G33   30.23R WCI  13
MANHATTAN      SUNNY     28   6  39 N14G29    30.27R WCI  17
EMPORIA        SUNNY     29   5  36 N24G33    30.21R WCI  15
CHANUTE        SUNNY     32  11  41 NW18G26   30.20R WCI  20
WICHITA        PTSUNNY   35  19  52 N22G28    30.26R WCI  23
OMAHA          MOSUNNY   15   4  61 N30G40    30.23R WCI  -5
LINCOLN        SUNNY     20   8  60 N22       30.28R WCI   3
FALLS CITY     SUNNY     20   7  57 NW21G30   30.22R WCI   4
LAMONI         SUNNY     14   4  64 NW15G25   30.12R WCI  -1
DES MOINES     MOSUNNY   11   2  67 NW18G26   30.13R WCI  -7

$$





USA.gov is the U.S. government's official web portal to all federal, state and local government web resources and services.